SCP
0 0 0 0 0 0 0 0 0 1 1 1 1 1 1 1 1 2 2 2 2 3 3 3 4 5 8 9 8 6 5 5 4 3 3 3 3 3 3 3 4 3 3 2
0 0 0 0 0 0 0 0 0 1 1 1 1 1 1 1 1 1 2 2 3 3 4 5 5 6 7 8 7 6 5 5 4 4 4 4 4 4 4 4 5 4 3 3
0 0 0 0 0 0 0 0 0 1 1 0 1 1 1 1 1 1 1 2 2 3 5 6 7 6 6 6 6 5 5 5 5 5 4 4 5 5 5 6 6 5 5 4
0 0 0 0 0 0 0 0 0 0 0 0 0 1 1 1 1 1 1 2 2 3 4 6 7 6 5 5 5 5 6 6 5 5 4 4 5 5 6 7 7 7 6 5
0 0 0 0 0 0 0 0 0 0 0 0 0 1 1 2 2 2 2 2 2 2 3 4 5 5 5 4 4 5 6 6 6 5 4 4 5 5 5 6 7 7 6 5
0 0 0 0 0 0 0 0 0 0 0 0 0 0 1 2 3 4 5 3 3 3 3 4 5 5 5 5 5 5 6 6 6 5 4 4 4 4 5 5 6 7 6 5
0 0 0 0 0 0 0 0 0 0 0 0 0 0 1 3 5 7 7 4 3 4 4 5 6 6 5 5 5 6 6 6 6 5 5 4 4 4 4 5 6 7 6 6
0 0 0 0 0 0 0 0 0 0 0 0 1 1 2 4 6 7 6 4 3 3 4 5 7 6 5 5 5 5 5 6 6 5 5 5 4 4 4 5 6 7 7 7
0 0 0 0 0 0 0 0 0 0 0 0 1 2 4 4 6 6 4 3 3 3 4 7 8 6 4 4 4 4 5 6 6 6 5 5 5 4 4 5 6 7 8 8
0 0 0 0 0 0 0 0 0 0 0 0 1 3 3 4 5 5 3 3 4 6 7 9 8 6 4 4 4 4 5 6 6 6 5 5 5 5 5 6 7 8 8 8
0 0 0 0 0 0 0 0 0 0 0 0 1 2 3 3 4 4 3 5 7 9 9 9 7 5 4 3 4 4 5 6 6 5 5 5 5 5 6 6 6 7 8 8
0 0 0 0 0 0 0 0 0 0 1 0 1 2 3 3 3 3 4 7 10 10 9 8 7 6 6 6 5 6 6 7 6 6 6 6 6 6 6 7 6 6 7 8
0 0 0 0 0 0 0 0 0 0 0 0 1 2 3 4 4 4 5 9 11 9 8 7 7 7 8 8 8 7 7 8 7 6 6 7 7 6 7 8 7 6 6 6
0 0 0 0 0 0 0 0 0 0 0 0 1 2 4 5 5 5 8 10 10 9 7 7 7 8 8 9 8 7 6 7 7 6 6 6 7 7 8 8 8 6 6 6
0 0 0 0 0 0 0 0 0 0 0 1 1 2 4 6 6 7 9 9 9 8 7 7 7 9 9 9 8 7 7 7 7 6 6 7 8 8 8 8 8 7 7 7
0 0 0 0 0 0 0 0 0 0 1 1 1 3 6 7 7 7 8 8 8 8 8 7 8 9 10 10 10 10 10 10 9 9 9 9 9 10 9 9 8 8 8 8
0 0 0 0 0 0 0 0 0 0 1 1 2 4 7 8 7 7 7 7 8 9 9 8 7 7 8 9 11 13 14 14 13 12 12 12 12 12 11 10 8 8 8 9
1 1 1 0 0 0 1 0 0 1 1 1 2 4 7 7 6 6 6 6 8 10 10 9 9 8 9 10 12 15 16 16 16 14 14 14 15 15 14 12 10 9 8 8
1 1 1 0 0 1 1 1 1 1 1 1 2 5 6 6 4 5 5 6 8 10 12 12 12 12 12 12 14 15 15 15 14 14 14 16 17 18 16 14 12 10 9 8
0 1 1 0 0 1 1 1 1 1 1 2 3 5 6 5 4 5 6 7 10 12 13 14 14 15 15 14 15 15 14 13 12 12 14 16 18 19 19 17 14 12 11 10
0 0 1 0 0 1 1 2 2 2 3 4 4 5 6 6 6 6 8 11 13 13 13 13 14 15 14 14 15 16 16 14 12 12 13 15 16 19 21 20 16 13 12 11
0 1 1 1 1 2 2 2 3 4 5 5 5 6 7 7 7 8 9 10 11 12 12 12 13 13 13 14 17 20 19 16 14 12 13 15 17 18 20 19 16 14 12 11
1 1 1 1 2 3 3 3 4 5 5 5 5 7 8 9 8 8 8 8 8 9 11 13 12 12 14 16 19 20 18 15 12 11 12 15 16 16 16 15 13 12 11 10
1 1 2 3 3 4 4 4 6 7 6 5 5 7 9 10 9 8 7 7 7 8 11 14 14 13 14 16 17 14 11 10 9 9 10 11 11 11 11 11 11 10 9 9
2 2 3 4 5 5 5 5 6 8 8 6 6 8 10 11 10 8 8 8 8 9 12 15 14 13 12 13 11 9 7 7 7 7 8 7 7 8 9 10 9 8 7 7
2 3 4 5 6 6 5 5 6 8 9 8 6 8 10 11 9 8 8 8 9 11 13 14 13 13 12 11 9 7 7 7 7 7 7 7 7 7 8 9 9 7 6 6
Wind_Speed
12 11 10 8 6 6 5 6 3 0 2 2 3 5 9 9 10 10 10 10 10 11 13 12 12 12 11 9 8 6 5 4 2 2 2 2 2 1 2 2 3 2 1 1
13 13 11 7 6 8 7 7 5 1 1 3 1 2 7 9 8 9 10 11 11 12 13 12 12 11 11 10 8 7 6 5 4 2 2 2 2 2 2 2 3 2 2 1
15 9 8 9 10 9 7 7 5 4 5 4 2 4 6 9 9 10 11 11 12 13 14 13 12 11 11 10 10 8 6 6 5 4 3 2 1 1 1 2 2 1 2 2
14 11 11 10 10 9 8 6 6 6 7 4 5 4 6 9 11 11 11 12 12 13 14 14 13 12 11 11 10 8 7 5 5 4 3 3 3 2 2 2 2 2 2 2
12 10 12 12 10 9 8 7 8 9 8 9 7 5 5 8 10 11 10 11 13 14 14 14 14 12 11 11 10 9 7 6 5 4 4 3 2 2 2 2 3 3 2 2
13 12 13 12 11 11 9 9 9 9 8 10 7 5 4 5 7 9 9 9 10 12 13 13 13 11 10 10 9 10 8 6 5 5 4 3 3 2 2 2 2 3 2 2
13 14 13 12 12 11 10 8 6 6 6 7 5 4 2 4 5 7 9 9 10 11 11 13 13 12 10 10 10 9 9 7 6 6 5 4 3 3 3 3 3 3 2 2
12 11 11 11 12 10 10 9 8 6 6 6 5 3 4 6 5 7 8 9 10 10 10 11 12 12 10 10 10 9 9 8 7 6 5 4 4 3 3 3 2 2 1 1
9 9 9 10 11 12 10 9 9 8 9 9 4 2 5 6 6 7 8 9 10 10 11 11 11 11 10 9 8 9 9 8 8 7 5 5 4 4 3 2 2 2 1 2
12 10 10 11 12 13 13 11 8 7 5 8 6 4 2 5 5 5 7 8 8 9 10 10 9 10 10 9 8 8 8 8 7 7 7 6 5 4 3 3 3 2 2 1
12 12 11 9 10 10 10 11 9 6 6 7 6 3 2 5 5 5 6 6 7 8 9 10 9 9 9 9 9 9 8 8 7 7 6 5 5 5 4 4 3 3 2 2
9 10 9 11 10 10 11 10 10 7 6 7 6 3 2 4 6 5 5 6 6 7 8 8 8 8 8 8 8 8 8 8 7 6 6 5 5 5 4 4 4 3 3 3
6 8 9 11 10 11 11 11 11 11 8 8 7 2 3 2 4 6 6 7 6 6 6 7 7 7 7 7 6 7 7 7 7 6 6 5 5 5 4 4 4 4 3 3
6 10 11 11 9 8 11 12 12 12 9 7 6 4 2 1 3 4 6 6 5 5 5 5 6 5 4 4 4 5 6 6 6 6 6 6 5 5 5 4 3 4 4 4
8 11 12 14 15 13 11 12 14 13 11 9 4 4 4 2 2 4 6 5 5 5 5 4 5 4 4 3 3 3 4 4 4 5 6 6 5 4 4 3 4 4 3 4
8 10 12 14 16 15 13 14 15 13 10 9 7 6 3 1 2 4 4 5 5 4 4 4 4 4 3 3 3 3 3 3 4 4 4 4 4 4 4 3 3 3 3 3
7 9 12 13 14 16 16 13 13 10 9 8 7 5 4 2 1 3 4 4 4 3 3 3 2 2 3 3 3 3 2 2 3 3 3 3 4 4 3 3 3 3 3 3
9 8 8 12 12 17 11 8 9 8 7 5 3 3 2 3 2 2 3 4 3 3 3 2 2 2 2 3 3 2 3 3 3 3 3 3 3 3 3 3 2 2 2 2
10 8 9 10 14 14 11 8 7 7 5 3 1 0 2 2 2 3 3 3 2 3 2 2 2 2 2 1 2 3 3 3 3 3 3 3 3 3 3 3 3 2 2 2
12 9 9 11 13 12 7 5 5 6 6 1 2 2 2 0 1 2 3 3 3 3 2 2 1 1 2 2 2 2 3 3 2 2 2 3 3 3 3 3 2 2 2 2
12 12 13 14 14 10 5 5 5 7 1 4 3 3 2 3 2 3 3 3 3 3 3 2 1 2 2 2 2 2 2 2 2 2 2 2 3 3 3 3 2 2 2 2
11 11 12 12 14 8 4 4 2 2 4 4 3 3 3 3 3 3 3 3 2 3 3 2 2 2 2 2 2 2 2 2 2 2 2 2 2 2 3 3 3 3 2 3
9 8 6 6 4 2 3 3 3 3 2 3 3 3 2 1 1 2 2 2 2 2 3 3 3 3 2 2 2 2 2 3 4 3 3 3 3 2 2 3 3 2 2 2
6 4 5 5 3 1 1 3 4 3 2 3 2 1 1 0 1 2 2 2 2 2 2 2 3 3 3 2 2 2 3 3 3 3 3 3 3 3 2 2 2 1 1 1
6 4 6 6 4 3 1 2 3 4 3 3 2 2 2 1 1 1 2 2 2 2 2 2 2 3 3 2 3 2 3 3 3 3 3 2 3 3 3 3 2 2 1 0
7 6 5 3 2 2 3 4 4 3 3 3 2 2 2 1 1 2 1 2 2 2 2 2 2 2 2 2 2 2 2 2 2 2 2 2 3 3 3 4 3 4 3 2
Wind_Direction
232 237 243 243 242 258 270 278 285 142 160 206 184 166 162 174 174 167 171 171 171 167 161 158 158 156 154 150 152 155 156 148 157 163 172 182 163 174 156 144 139 138 140 98
240 237 242 248 252 256 260 266 270 209 195 245 231 201 173 177 180 177 176 173 171 164 159 159 163 162 160 156 158 159 167 166 177 177 184 195 171 174 146 123 134 146 149 169
238 244 238 245 254 256 262 273 282 292 270 255 270 245 196 183 176 180 180 175 173 169 165 165 168 167 164 164 168 173 169 170 178 188 191 189 170 167 141 140 135 153 168 156
244 243 247 246 249 258 260 271 271 261 273 267 224 237 205 188 179 183 182 177 176 172 168 167 171 172 171 170 169 163 163 171 176 193 202 202 182 178 176 157 153 167 182 170
248 244 249 250 254 259 272 278 275 273 272 272 243 237 196 185 183 183 185 181 176 173 171 169 172 174 173 172 169 161 160 170 179 193 199 208 202 187 170 161 162 171 176 184
255 252 249 255 257 255 259 269 274 271 262 261 257 254 194 190 177 174 177 178 171 165 166 165 167 166 171 171 169 161 160 170 179 192 195 198 202 202 187 191 182 195 184 182
239 243 244 246 251 244 247 257 264 264 252 249 242 245 181 138 152 167 170 167 160 161 163 163 165 167 171 173 172 164 164 172 181 190 196 194 201 206 201 216 214 217 190 176
237 231 230 236 246 249 244 247 253 261 278 286 255 226 158 145 158 144 142 149 158 162 161 163 165 167 172 176 173 166 167 174 181 187 191 195 202 211 206 215 230 208 213 181
259 245 235 235 245 248 248 243 251 256 270 276 267 222 152 150 148 138 138 145 157 164 167 164 163 165 168 173 173 170 165 171 180 186 185 188 195 217 217 200 213 219 210 199
268 277 257 227 233 232 245 256 253 246 261 272 268 249 185 139 131 129 137 140 149 163 164 157 163 166 168 173 172 170 169 171 176 182 190 194 196 205 205 208 213 211 202 181
256 264 267 246 229 237 232 246 261 275 264 264 275 283 136 144 142 139 139 140 157 169 165 161 164 163 165 169 173 175 169 172 180 186 189 191 185 196 200 206 217 210 197 193
249 256 265 261 250 244 244 241 248 255 262 272 265 253 122 121 134 137 134 147 165 164 157 160 157 158 164 170 173 172 174 180 184 186 183 189 185 190 197 204 202 199 199 206
277 258 254 247 241 224 236 241 245 255 254 251 261 234 140 101 111 126 134 139 142 142 148 152 152 156 163 167 169 172 178 183 184 183 184 184 190 190 194 203 193 189 200 206
272 258 258 260 259 254 238 242 249 257 259 254 246 246 258 163 119 117 118 122 133 134 137 143 137 134 141 148 155 168 183 184 186 183 186 184 192 194 192 199 199 197 203 208
254 258 260 264 268 269 253 250 246 248 259 268 261 248 246 231 126 121 127 137 140 135 135 130 129 130 136 140 157 174 180 180 185 182 188 188 187 189 183 192 198 198 202 210
249 268 272 264 263 264 263 260 258 246 242 244 240 241 230 173 101 113 127 142 139 143 141 133 130 141 150 157 171 174 181 176 170 179 183 170 174 183 186 192 193 197 197 203
253 259 269 268 264 263 253 247 255 256 252 245 239 224 203 165 143 143 151 142 139 142 126 121 133 151 162 170 166 171 170 163 159 162 164 163 174 183 189 192 186 199 202 200
247 259 261 263 263 256 257 254 248 255 266 270 240 180 170 122 91 89 114 125 129 126 126 126 137 143 163 175 167 158 157 158 162 162 171 168 172 178 171 175 179 189 189 191
242 243 257 262 255 250 258 258 239 241 253 287 297 90 115 114 136 105 86 89 113 112 103 113 133 145 127 123 145 149 154 155 163 168 171 171 176 174 171 180 176 173 178 183
232 226 241 254 263 261 251 267 284 258 234 324 34 66 79 43 201 99 79 75 80 87 93 99 112 104 116 118 121 145 155 149 155 168 173 169 167 169 168 172 168 163 172 174
218 220 231 246 255 257 294 300 275 251 280 18 34 52 54 46 37 76 80 81 93 100 98 90 104 105 95 100 119 128 141 149 143 143 149 158 166 165 153 154 156 155 170 169
234 226 226 239 248 251 343 308 332 34 35 21 30 58 64 56 72 73 91 100 104 113 110 110 104 100 95 100 120 132 132 118 110 112 120 124 132 155 149 155 160 167 172 176
244 245 244 245 249 47 20 43 42 45 31 350 349 33 69 87 112 111 104 100 108 92 98 95 99 92 94 114 139 143 116 112 118 119 119 117 115 110 121 139 148 159 172 194
246 262 267 265 204 184 66 49 9 353 340 314 342 355 327 281 136 129 129 116 97 86 103 102 103 102 86 85 96 114 111 104 112 123 132 139 134 125 112 112 117 120 134 187
303 273 256 259 271 271 321 357 338 338 334 335 347 315 317 289 168 143 142 132 117 99 97 105 111 106 94 89 99 103 115 126 135 143 148 148 135 128 116 103 82 106 87 96
279 274 273 270 317 314 311 328 321 326 321 327 341 350 343 325 111 117 114 100 106 119 107 105 114 111 106 99 101 95 114 133 142 152 162 168 158 145 143 140 123 62 86 104